Delavan, Wisconsin, United States (53115)
Lat: 42.63N, Lon: 88.64W
Wx Zone: WIZ070
Local Info
Past Weather Observations for Today

NOTE: This archive is for the closest National Weather Service station to Delavan. Information may differ from the station used for current weather conditions.

Click here for Long-term Archive

Time Weather Temperature Dewpoint Humidity Pressure Winds Precip Visibility
17:55
Overcast
Light Snow
19°F / -7°C 16°F / -9°C 86% 29.89 in
(1012 mb)
NNE 17.3 mph
(NNE 28 kph)
- 2SM
17:35
Overcast
Light Snow
19°F / -7°C 16°F / -9°C 86% 29.89 in
(1012 mb)
NNE 18.4 mph
(NNE 30 kph)
- 1 3/4SM
17:15
Overcast
Light Snow
19°F / -7°C 16°F / -9°C 86% 29.89 in
(1012 mb)
NNE 18.4 mph
(NNE 30 kph)
- 1SM
16:55
Overcast
Light Snow
19°F / -7°C 16°F / -9°C 86% 29.86 in
(1011 mb)
NNE 17.3 mph
(NNE 28 kph)
- 3/4SM
16:35
Overcast
Light Snow
19°F / -7°C 16°F / -9°C 86% 29.83 in
(1010 mb)
NE 18.4 mph
(NE 30 kph)
- 3/4SM
16:15
Overcast
Light Snow
19°F / -7°C 18°F / -8°C 93% 29.83 in
(1010 mb)
NE 20.7 mph
(NE 33 kph)
- 1SM
15:55
Overcast
Light Snow
19°F / -7°C 16°F / -9°C 86% 29.83 in
(1010 mb)
NE 21.9 mph
(NE 35 kph)
- 3/4SM
15:35
Overcast
Light Snow
19°F / -7°C 16°F / -9°C 86% 29.86 in
(1011 mb)
NE 21.9 mph
(NE 35 kph)
- 1 1/2SM
15:15
Overcast
Light Snow
19°F / -7°C 18°F / -8°C 93% 29.86 in
(1011 mb)
NE 23 mph
(NE 37 kph)
- 1 3/4SM
14:55
Overcast
Light Snow
21°F / -6°C 18°F / -8°C 86% 29.86 in
(1011 mb)
NE 19.6 mph
(NE 32 kph)
- 1 1/4SM
14:35
Overcast
Light Snow
21°F / -6°C 18°F / -8°C 86% 29.86 in
(1011 mb)
NE 17.3 mph
(NE 28 kph)
- 1 1/2SM
14:15
Overcast
Light Snow
21°F / -6°C 18°F / -8°C 86% 29.86 in
(1011 mb)
NE 16.1 mph
(NE 26 kph)
- 1 1/4SM
13:55
Overcast
Light Snow
21°F / -6°C 18°F / -8°C 86% 29.89 in
(1012 mb)
NE 15 mph
(NE 24 kph)
- 1 3/4SM
13:35
Overcast
Light Snow
21°F / -6°C 18°F / -8°C 86% 29.89 in
(1012 mb)
NE 17.3 mph
(NE 28 kph)
- 1 1/2SM
13:15
Overcast
Light Snow
21°F / -6°C 18°F / -8°C 86% 29.89 in
(1012 mb)
ENE 21.9 mph
(ENE 35 kph)
- 1 3/4SM
12:55
Overcast
Light Snow
21°F / -6°C 18°F / -8°C 86% 29.89 in
(1012 mb)
NE 18.4 mph
(NE 30 kph)
- 2 1/2SM
12:35
Overcast
Light Snow
21°F / -6°C 18°F / -8°C 86% 29.89 in
(1012 mb)
NE 21.9 mph
(NE 35 kph)
- 1 3/4SM
12:15
Overcast
Light Snow
21°F / -6°C 19°F / -7°C 93% 29.92 in
(1013 mb)
NE 20.7 mph
(NE 33 kph)
- 2SM
11:55
Overcast
Light Snow
21°F / -6°C 19°F / -7°C 93% 29.92 in
(1013 mb)
NE 15 mph
(NE 24 kph)
- 2SM
11:35
Overcast
Light Snow
21°F / -6°C 19°F / -7°C 93% 29.92 in
(1013 mb)
NE 16.1 mph
(NE 26 kph)
- 2 1/2SM
11:15
Overcast
Light Snow
21°F / -6°C 19°F / -7°C 93% 29.95 in
(1014 mb)
NE 18.4 mph
(NE 30 kph)
- 1SM
10:55
Overcast
Light Snow
21°F / -6°C 19°F / -7°C 93% 29.95 in
(1014 mb)
NE 18.4 mph
(NE 30 kph)
- 1 3/4SM
10:35
Overcast
Light Snow
21°F / -6°C 19°F / -7°C 93% 29.98 in
(1015 mb)
NE 21.9 mph
(NE 35 kph)
- 1 1/4SM
10:15
Overcast
Light Snow
21°F / -6°C 19°F / -7°C 93% 29.98 in
(1015 mb)
ENE 16.1 mph
(ENE 26 kph)
- 1 1/2SM
09:55
Overcast
Light Snow
21°F / -6°C 19°F / -7°C 93% 29.98 in
(1015 mb)
ENE 17.3 mph
(ENE 28 kph)
- 1 1/2SM
09:35
Overcast
Light Snow
21°F / -6°C 19°F / -7°C 93% 29.98 in
(1015 mb)
NE 16.1 mph
(NE 26 kph)
- 1 3/4SM
09:15
Overcast
Light Snow
21°F / -6°C 19°F / -7°C 93% 30.01 in
(1016 mb)
NE 17.3 mph
(NE 28 kph)
- 1 1/2SM
08:55
Overcast
Light Snow
21°F / -6°C 19°F / -7°C 93% 30.01 in
(1016 mb)
NE 16.1 mph
(NE 26 kph)
- 1 3/4SM
08:35
Overcast
Light Snow
23°F / -5°C 19°F / -7°C 86% 30.01 in
(1016 mb)
NE 13.8 mph
(NE 22 kph)
- 1 1/2SM
08:15
Overcast
Light Snow
23°F / -5°C 21°F / -6°C 93% 30.01 in
(1016 mb)
NE 16.1 mph
(NE 26 kph)
- 1 1/2SM
07:55
Overcast
Light Snow
23°F / -5°C 21°F / -6°C 93% 30.01 in
(1016 mb)
ENE 17.3 mph
(ENE 28 kph)
- 1SM
07:35
Overcast
Light Snow
23°F / -5°C 21°F / -6°C 93% 30.01 in
(1016 mb)
ENE 17.3 mph
(ENE 28 kph)
- 1 1/4SM
07:15
Overcast
Light Snow
23°F / -5°C 21°F / -6°C 93% 30.04 in
(1017 mb)
ENE 18.4 mph
(ENE 30 kph)
- 1SM
06:55
Overcast
Light Snow
23°F / -5°C 21°F / -6°C 93% 30.04 in
(1017 mb)
ENE 21.9 mph
(ENE 35 kph)
- 2SM
06:35
Overcast
Light Snow
23°F / -5°C 23°F / -5°C 100% 30.04 in
(1017 mb)
ENE 20.7 mph
(ENE 33 kph)
- 2 1/2SM
06:15
Overcast
Light Snow
23°F / -5°C 23°F / -5°C 100% 30.04 in
(1017 mb)
ENE 15 mph
(ENE 24 kph)
- 2 1/2SM
05:55
Overcast
Light Snow
25°F / -4°C 23°F / -5°C 93% 30.06 in
(1018 mb)
NE 16.1 mph
(NE 26 kph)
0.01 in
(0.25 mm)
4SM
05:35
Overcast
Light Snow
25°F / -4°C 23°F / -5°C 93% 30.06 in
(1018 mb)
ENE 16.1 mph
(ENE 26 kph)
0.01 in
(0.25 mm)
3SM
05:15
Overcast
Light Snow
25°F / -4°C 23°F / -5°C 93% 30.06 in
(1018 mb)
NE 16.1 mph
(NE 26 kph)
0.01 in
(0.25 mm)
3SM
04:55
Overcast
Light Snow
25°F / -4°C 23°F / -5°C 93% 30.06 in
(1018 mb)
ENE 15 mph
(ENE 24 kph)
- 2 1/2SM
04:35
Overcast
Light Snow
25°F / -4°C 23°F / -5°C 93% 30.06 in
(1018 mb)
ENE 16.1 mph
(ENE 26 kph)
- 3SM
04:15
Overcast
Light Snow
25°F / -4°C 23°F / -5°C 93% 30.09 in
(1019 mb)
NE 11.5 mph
(NE 19 kph)
- 2 1/2SM
03:55
Overcast
Light Snow
27°F / -3°C 25°F / -4°C 93% 30.09 in
(1019 mb)
ENE 13.8 mph
(ENE 22 kph)
- 3SM
03:35
Overcast
Light Snow
27°F / -3°C 25°F / -4°C 93% 30.09 in
(1019 mb)
ENE 15 mph
(ENE 24 kph)
- 2 1/2SM
03:15
Overcast
Light Snow
27°F / -3°C 25°F / -4°C 93% 30.09 in
(1019 mb)
ENE 11.5 mph
(ENE 19 kph)
- 2 1/2SM
02:55
Overcast
Light Snow
27°F / -3°C 25°F / -4°C 93% 30.09 in
(1019 mb)
ENE 11.5 mph
(ENE 19 kph)
0.01 in
(0.25 mm)
2SM
02:35
Overcast
Light Snow
27°F / -3°C 25°F / -4°C 93% 30.09 in
(1019 mb)
ENE 12.7 mph
(ENE 20 kph)
0.01 in
(0.25 mm)
2 1/2SM
02:15
Overcast
Light Snow
27°F / -3°C 25°F / -4°C 93% 30.12 in
(1020 mb)
ENE 10.4 mph
(ENE 17 kph)
- 2 1/2SM
01:55
Overcast
Light Snow
27°F / -3°C 25°F / -4°C 93% 30.12 in
(1020 mb)
ENE 11.5 mph
(ENE 19 kph)
- 2 1/2SM
01:35
Overcast
Light Snow
27°F / -3°C 25°F / -4°C 93% 30.12 in
(1020 mb)
ENE 12.7 mph
(ENE 20 kph)
- 2 1/2SM
01:15
Overcast
Light Snow
27°F / -3°C 25°F / -4°C 93% 30.12 in
(1020 mb)
ENE 13.8 mph
(ENE 22 kph)
- 2 1/2SM
00:55
Overcast
Light Snow
28°F / -2°C 27°F / -3°C 93% 30.12 in
(1020 mb)
ENE 11.5 mph
(ENE 19 kph)
0.01 in
(0.25 mm)
3SM
00:35
Overcast
Light Snow
28°F / -2°C 27°F / -3°C 93% 30.15 in
(1021 mb)
ENE 10.4 mph
(ENE 17 kph)
0.01 in
(0.25 mm)
2 1/2SM
00:15
Overcast
Light Snow
28°F / -2°C 27°F / -3°C 93% 30.15 in
(1021 mb)
ENE 8.1 mph
(ENE 13 kph)
0.01 in
(0.25 mm)
2SM
Time Weather Temperature Dewpoint Humidity Pressure Winds Precip Visibility


Weather for websites

WeatherForYou.com, LLC is not responsible for any damages or problems caused by this service. Current weather conditions are obtained from the closest station including government and personal stations which may have varying degrees of accuracy. Weather forecasts are derived from the NOAA NDFD. Like all things, this site belongs to Jesus Christ... He just trusts me to maintain it. If you have any questions or comments email webmaster@weatherforyou.com

Copyright © 2015, WeatherForYou.com LLC. All rights reserved.